Location: Qazi Observatory
(41.6337°N, 88.1517°W)
Time: 20:55:45
(UTC-06:00)

Amateur Radio Satellites - All Passes

Search period start: 28 February 2015 20:25
Search period end: 01 March 2015 20:25
Location: Qazi Observatory, 41.6337°N, 88.1517°W

Satellite Date Start Highest point End Downlink Frequencies (MHz)
Time Altitude Azimuth
AIST 2 28 Feb 20:32:08 20:32:56 10° 326° (NW) 20:33:33 435.215
DELFI C3 28 Feb 20:35:22 20:39:18 53° 74° (ENE) 20:43:15 145.870
O/OREOS (USA 219) 28 Feb 20:36:07 20:39:13 18° 259° (W) 20:42:09 437.305
AISAT 28 Feb 20:39:51 20:42:46 18° 65° (ENE) 20:45:50 437.250
DX 1 28 Feb 20:45:28 20:49:39 46° 72° (ENE) 20:53:54 434.975-435.025
AAUSAT CUBESAT 2 28 Feb 20:49:47 20:53:38 36° 263° (W) 20:57:30 437.432
VELOX 1 28 Feb 20:49:59 20:53:20 22° 67° (ENE) 20:56:47 145.980
COMPASS 1 28 Feb 20:50:45 20:54:29 31° 264° (W) 20:58:12 437.405
DOVE 4 28 Feb 20:52:20 20:57:07 36° 264° (W) 21:01:42 437.250
PCSat 28 Feb 20:52:51 20:58:15 74° 118° (ESE) 21:03:42 145.827
CUBEBUG 1 28 Feb 20:54:12 20:54:19 10° 61° (ENE) 20:54:41 437.445
ESTCUBE 1 28 Feb 20:58:35 21:00:34 13° 63° (ENE) 21:02:47 437.505/2401.250
FUNcube-1 28 Feb 21:05:01 21:09:25 73° 76° (ENE) 21:13:43 145.935
ZACube-1 28 Feb 21:05:25 21:09:50 75° 76° (ENE) 21:14:09 437.345
PHONESAT 2.4 28 Feb 21:07:43 21:11:21 76° 180° (S) 21:14:59 2401.200-2431.200
SEEDS 28 Feb 21:16:26 21:18:53 15° 270° (W) 21:21:08 437.485
CANX-2 28 Feb 21:17:13 21:18:42 11° 272° (W) 21:19:57 2200.000
CINEMA 3 28 Feb 21:17:13 21:21:38 33° 264° (W) 21:25:51 145.822/145.860
UKube-1 28 Feb 21:17:42 21:22:04 82° 257° (WSW) 21:26:28 .
UWE-3 28 Feb 21:19:33 21:24:01 63° 260° (W) 21:28:21 435.000/436.395/437.385
VERMONT LUNAR 28 Feb 21:19:56 21:23:25 66° 188° (S) 21:26:52 437.305
HUMSAT D 28 Feb 21:26:21 21:30:32 67° 75° (ENE) 21:34:42 437.325/437.525
TIGRISAT 28 Feb 21:37:48 21:40:37 18° 92° (E) 21:43:36 435.000
50 SAT 28 Feb 21:46:28 21:50:28 80° 77° (ENE) 21:54:28 437.505
ANTELSAT 28 Feb 21:49:37 21:53:07 24° 94° (E) 21:56:43 437.575/2403.000
GONETS M04 28 Feb 21:51:26 22:00:04 76° 95° (E) 22:08:46
CUBEBUG 2 28 Feb 21:53:24 21:57:07 24° 266° (W) 22:00:40 437.445
RS-15 28 Feb 21:55:36 22:03:48 27° 105° (ESE) 22:12:29 29.354- 29.394
QB50P1 28 Feb 21:58:12 22:00:50 17° 91° (E) 22:03:37 145.935-145.965
QB50P2 28 Feb 22:01:04 22:03:56 18° 92° (E) 22:06:56 145.880/145.840
Oscar 11 28 Feb 22:03:44 22:05:56 13° 271° (W) 22:07:57 145.826/435.025
DELFI C3 28 Feb 22:13:21 22:14:55 12° 271° (W) 22:16:17 145.870
AISAT 28 Feb 22:14:42 22:19:04 48° 261° (W) 22:23:26 437.250
DUCHIFAT 1 28 Feb 22:17:37 22:21:11 26° 95° (E) 22:24:45 145.980
BUGSAT 1 28 Feb 22:19:44 22:22:52 21° 93° (E) 22:26:03 437.445
CUSAT 1 28 Feb 22:21:37 22:22:19 10° 90° (E) 22:23:27 437.405
DX 1 28 Feb 22:23:21 22:26:12 16° 269° (W) 22:28:55 434.975-435.025
VELOX 1 28 Feb 22:25:31 22:29:42 38° 263° (W) 22:33:54 145.980
CUBEBUG 1 28 Feb 22:25:37 22:30:04 87° 256° (WSW) 22:34:34 437.445
ESTCUBE 1 28 Feb 22:32:28 22:36:57 68° 259° (WSW) 22:41:30 437.505/2401.250
POLYITAN 1 28 Feb 22:34:55 22:38:58 42° 99° (E) 22:42:59 437.675
POPSAT HIP 1 28 Feb 22:36:34 22:40:37 44° 98° (E) 22:44:39 437.405
PCSat 28 Feb 22:38:19 22:42:19 20° 317° (NW) 22:46:12 145.827
PHONESAT 2.4 28 Feb 22:46:11 22:49:43 49° 196° (SSW) 22:53:12 2401.200-2431.200
UNISAT 6 28 Feb 22:47:11 22:51:29 76° 284° (WNW) 22:55:47 437.425
VERMONT LUNAR 28 Feb 22:58:05 23:01:04 26° 204° (SSW) 23:04:01 437.305
NANOSAT C BR1 28 Feb 23:00:29 23:04:45 84° 103° (ESE) 23:08:57 145.865
HUMSAT D 28 Feb 23:06:18 23:06:51 10° 272° (W) 23:07:08 437.325/437.525
SPROUT 28 Feb 23:06:26 23:10:44 65° 75° (ENE) 23:15:03 437.525
TIGRISAT 28 Feb 23:13:36 23:17:37 39° 288° (WNW) 23:21:36 435.000
DANDE 28 Feb 23:16:42 23:22:46 32° 95° (E) 23:27:44 436.750
TISAT 1 28 Feb 23:18:00 23:22:17 80° 77° (ENE) 23:26:36 437.305
ANTELSAT 28 Feb 23:26:14 23:29:57 29° 290° (WNW) 23:33:39 437.575/2403.000
QB50P1 28 Feb 23:32:59 23:37:00 41° 288° (WNW) 23:40:57 145.935-145.965
SWISSCUBE 28 Feb 23:33:55 23:37:32 22° 66° (ENE) 23:41:16 437.505
QB50P2 28 Feb 23:36:06 23:40:03 38° 289° (WNW) 23:43:57 145.880/145.840
BEESAT 28 Feb 23:42:43 23:46:32 25° 67° (ENE) 23:50:27 436.000
GONETS M04 28 Feb 23:51:13 23:58:00 24° 297° (WNW) 00:04:30
DUCHIFAT 1 28 Feb 23:53:26 23:56:59 26° 291° (WNW) 00:00:27 145.980
BUGSAT 1 28 Feb 23:54:43 23:58:28 32° 290° (WNW) 00:02:07 437.445
CUSAT 1 28 Feb 23:58:23 00:05:07 82° 99° (E) 00:10:10 437.405
RS-15 01 Mar 00:04:10 00:15:06 80° 305° (NW) 00:26:14 29.354- 29.394
ITUPSAT 1 01 Mar 00:07:57 00:12:27 42° 71° (ENE) 00:17:00 437.325
POLYITAN 1 01 Mar 00:11:47 00:14:36 17° 294° (WNW) 00:17:17 437.675
POPSAT HIP 1 01 Mar 00:13:26 00:16:13 17° 294° (WNW) 00:18:50 437.405
Oscar 19 01 Mar 00:14:22 00:17:14 15° 89° (E) 00:20:21 437.125/150
PHONESAT 2.4 01 Mar 00:25:29 00:27:43 15° 211° (SSW) 00:29:53 2401.200-2431.200
KKS-1 01 Mar 00:29:15 00:31:31 14° 64° (ENE) 00:33:58 437.445
STARS 01 Mar 00:41:05 00:42:42 12° 63° (ENE) 00:44:33 437.465
SO-50 01 Mar 00:45:37 00:48:16 16° 110° (ESE) 00:51:09 436.795
SPROUT 01 Mar 00:45:50 00:47:21 11° 272° (W) 00:48:37 437.525
DANDE 01 Mar 00:59:30 01:06:06 40° 284° (WNW) 01:11:11 436.750
Gurwin Techsat 1B 01 Mar 01:08:23 01:10:29 13° 87° (E) 01:12:55 435.225
SWISSCUBE 01 Mar 01:10:40 01:15:10 41° 262° (W) 01:19:42 437.505
BEESAT 01 Mar 01:19:51 01:24:15 36° 263° (W) 01:28:38 436.000
BEESAT 3 01 Mar 01:23:33 01:26:58 24° 46° (NE) 01:30:24 437.485
AIST 2 01 Mar 01:33:44 01:35:53 14° 38° (NE) 01:38:08 435.215
CUSAT 1 01 Mar 01:45:13 01:48:14 13° 291° (WNW) 01:50:38 437.405
ITAMSAT 1 01 Mar 01:45:59 01:50:51 38° 97° (E) 01:55:42 435.822/435.867
BEESAT 2 01 Mar 01:46:34 01:50:23 34° 49° (NE) 01:54:10 435.950
ITUPSAT 1 01 Mar 01:46:57 01:50:34 21° 268° (W) 01:54:06 437.325
Oscar 19 01 Mar 01:52:03 01:57:08 63° 286° (WNW) 02:02:11 437.125/150
YUBILEINY 01 Mar 01:53:35 02:00:41 27° 65° (ENE) 02:08:02 435.215
KKS-1 01 Mar 02:03:17 02:07:44 61° 259° (W) 02:12:11 437.445
STARS 01 Mar 02:14:14 02:18:40 72° 257° (WSW) 02:23:07 437.465
RS-15 01 Mar 02:20:17 02:29:35 30° 333° (NNW) 02:38:57 29.354- 29.394
HORYU 2 01 Mar 02:21:47 02:24:19 15° 90° (E) 02:27:02 437.375
SO-50 01 Mar 02:23:47 02:28:20 61° 306° (NW) 02:33:05 436.795
AO-7 01 Mar 02:36:03 02:41:08 18° 88° (E) 02:46:40 29.400- 29.500
Gurwin Techsat 1B 01 Mar 02:45:52 02:51:12 80° 286° (WNW) 02:56:32 435.225
MOZHAYETS 4 01 Mar 03:01:16 03:05:00 26° 68° (ENE) 03:08:50
BEESAT 3 01 Mar 03:01:22 03:05:10 35° 244° (WSW) 03:08:52 437.485
AIST 2 01 Mar 03:10:51 03:15:09 88° 240° (WSW) 03:19:22 435.215
M-CUBED/EXP-1 PRIME 01 Mar 03:23:40 03:26:55 63° 253° (WSW) 03:30:18 437.505
BEESAT 2 01 Mar 03:25:03 03:28:26 24° 247° (WSW) 03:31:42 435.950
ITAMSAT 1 01 Mar 03:25:49 03:30:13 27° 294° (WNW) 03:34:30 435.822/435.867
AUBIESAT-1 01 Mar 03:27:16 03:30:32 66° 253° (WSW) 03:33:56 437.475
YUBILEINY 01 Mar 03:49:36 03:58:23 68° 266° (W) 04:07:05 435.215
HORYU 2 01 Mar 03:57:01 04:01:20 50° 288° (WNW) 04:05:37 437.375
PCSat 01 Mar 03:59:12 04:01:21 12° 35° (NE) 04:03:42 145.827
JAS-2 01 Mar 04:07:37 04:14:55 61° 100° (E) 04:22:41 435.910
SO-50 01 Mar 04:08:02 04:09:59 12° 328° (NNW) 04:11:47 436.795
STRAND 1 01 Mar 04:18:38 04:19:38 11° 59° (ENE) 04:20:55 437.568
AO-7 01 Mar 04:26:48 04:35:10 90° 294° (WNW) 04:43:28 29.400- 29.500
Gurwin Techsat 1B 01 Mar 04:28:44 04:30:26 11° 301° (WNW) 04:31:50 435.225
MOZHAYETS 4 01 Mar 04:38:06 04:42:09 31° 265° (W) 04:46:12
RS-15 01 Mar 04:38:51 04:46:55 22° 8° (N) 04:55:18 29.354- 29.394
PRISM 01 Mar 04:50:00 04:53:32 28° 69° (ENE) 04:57:10 437.425
CUBESAT XI-V 01 Mar 04:54:29 04:58:34 31° 70° (ENE) 05:02:45 437.345
Cubesat XI-IV 01 Mar 04:59:35 05:02:30 15° 88° (E) 05:05:40 437.490
CUTE-I 01 Mar 05:08:38 05:12:11 18° 90° (E) 05:15:56 437.470
PCSat 01 Mar 05:40:37 05:46:01 61° 57° (ENE) 05:51:22 145.827
YUBILEINY 01 Mar 05:50:26 05:53:43 12° 285° (WNW) 05:56:17 435.215
STRAND 1 01 Mar 05:52:56 05:58:04 79° 76° (ENE) 06:03:16 437.568
JAS-2 01 Mar 05:53:23 05:59:37 30° 295° (WNW) 06:06:01 435.910
AIST 1 01 Mar 06:07:18 06:09:58 17° 87° (E) 06:12:49
AO-7 01 Mar 06:21:01 06:27:02 22° 307° (NW) 06:32:46 29.400- 29.500
PRISM 01 Mar 06:25:42 06:29:05 23° 266° (W) 06:32:25 437.425
CUBESAT XI-V 01 Mar 06:32:03 06:36:02 27° 266° (W) 06:40:00 437.345
Cubesat XI-IV 01 Mar 06:37:51 06:43:13 69° 287° (WNW) 06:48:32 437.490
CUTE-I 01 Mar 06:47:27 06:52:43 57° 288° (WNW) 06:57:57 437.470
RS-15 01 Mar 06:52:50 07:03:25 43° 40° (NE) 07:14:33 29.354- 29.394
PCSat 01 Mar 07:25:12 07:29:00 19° 253° (WSW) 07:32:36 145.827
CANX-2 01 Mar 07:26:22 07:26:49 10° 87° (E) 07:27:33 2200.000
STRAND 1 01 Mar 07:35:49 07:38:00 12° 273° (W) 07:39:53 437.568
HO-68 01 Mar 07:39:01 07:44:31 24° 91° (E) 07:50:13 435.675
AIST 1 01 Mar 07:43:12 07:47:19 41° 283° (WNW) 07:51:29
CUTE 1.7 + AOD 2 01 Mar 07:43:28 07:45:55 15° 90° (E) 07:48:32 437.475
BRITE-PL 01 Mar 07:55:14 07:59:26 34° 95° (E) 08:03:24 437.365/2234.400
GONETS M04 01 Mar 08:01:38 08:09:34 38° 70° (ENE) 08:17:39
GOMX 1 01 Mar 08:08:53 08:12:48 31° 95° (E) 08:16:35 467.674
ISS 01 Mar 08:18:53 08:20:50 15° 132° (SE) 08:22:51 145.825
AAUSAT CUBESAT 2 01 Mar 08:32:43 08:36:29 32° 96° (E) 08:40:17 437.432
COMPASS 1 01 Mar 08:33:50 08:37:46 38° 97° (E) 08:41:43 437.405
TIGRISAT 01 Mar 08:37:22 08:40:13 18° 66° (ENE) 08:43:12 435.000
ANTELSAT 01 Mar 08:49:19 08:52:48 24° 68° (ENE) 08:56:19 437.575/2403.000
DOVE 4 01 Mar 08:51:28 08:55:45 63° 100° (E) 08:59:52 437.250
QB50P1 01 Mar 08:52:06 08:54:21 14° 65° (ENE) 08:56:45 145.935-145.965
QB50P2 01 Mar 08:55:03 08:57:33 16° 65° (ENE) 09:00:13 145.880/145.840
FUNcube-1 01 Mar 08:55:16 08:57:01 13° 89° (E) 08:58:59 145.935
ZACube-1 01 Mar 08:55:47 08:57:40 13° 89° (E) 08:59:46 437.345
SEEDS 01 Mar 08:58:30 09:02:45 89° 287° (WNW) 09:07:00 437.485
CANX-2 01 Mar 08:59:05 09:03:19 68° 285° (WNW) 09:07:32 2200.000
RS-15 01 Mar 09:05:17 09:16:37 67° 244° (WSW) 09:28:22 29.354- 29.394
UKube-1 01 Mar 09:06:31 09:09:10 16° 91° (E) 09:11:59 .
O/OREOS (USA 219) 01 Mar 09:07:55 09:12:19 52° 108° (ESE) 09:16:48 437.305
UWE-3 01 Mar 09:10:01 09:13:20 23° 94° (E) 09:16:44 435.000/436.395/437.385
BUGSAT 1 01 Mar 09:10:42 09:13:25 17° 66° (ENE) 09:16:16 437.445
DUCHIFAT 1 01 Mar 09:10:48 09:14:03 22° 68° (ENE) 09:17:24 145.980
CINEMA 3 01 Mar 09:11:50 09:15:57 55° 100° (E) 09:20:01 145.822/145.860
HUMSAT D 01 Mar 09:13:42 09:13:57 10° 88° (E) 09:14:30 437.325/437.525
SO-50 01 Mar 09:15:15 09:18:56 21° 41° (NE) 09:22:43 436.795
CUTE 1.7 + AOD 2 01 Mar 09:18:05 09:22:09 45° 287° (WNW) 09:26:13 437.475
HO-68 01 Mar 09:25:42 09:32:50 65° 290° (WNW) 09:39:55 435.675
POLYITAN 1 01 Mar 09:28:21 09:32:14 34° 71° (ENE) 09:36:09 437.675
POPSAT HIP 1 01 Mar 09:29:43 09:33:36 35° 71° (ENE) 09:37:32 437.405
BRITE-PL 01 Mar 09:34:10 09:37:48 22° 294° (WNW) 09:41:09 437.365/2234.400
CUBEBUG 2 01 Mar 09:43:27 09:47:38 70° 102° (ESE) 09:51:45 437.445
UNISAT 6 01 Mar 09:46:17 09:50:44 84° 257° (WSW) 09:55:07 437.425
GOMX 1 01 Mar 09:47:18 09:50:51 23° 293° (WNW) 09:54:09 467.674
Oscar 11 01 Mar 09:48:14 09:52:35 75° 283° (WNW) 09:56:54 145.826/435.025
DELFI C3 01 Mar 09:50:06 09:54:13 87° 283° (WNW) 09:58:19 145.870
NANOSAT C BR1 01 Mar 09:53:09 09:57:23 64° 75° (ENE) 10:01:39 145.865
ISS 01 Mar 09:53:47 09:56:58 60° 328° (NNW) 10:00:11 145.825
GONETS M04 01 Mar 09:58:22 10:06:39 48° 271° (W) 10:14:52
AISAT 01 Mar 10:05:42 10:09:39 31° 96° (E) 10:13:37 437.250
AAUSAT CUBESAT 2 01 Mar 10:08:45 10:12:00 22° 292° (WNW) 10:15:09 437.432
DX 1 01 Mar 10:09:37 10:14:02 85° 106° (ESE) 10:18:23 434.975-435.025
COMPASS 1 01 Mar 10:10:16 10:13:15 19° 293° (WNW) 10:16:07 437.405
TIGRISAT 01 Mar 10:12:28 10:16:44 44° 261° (W) 10:20:54 435.000
CUBEBUG 1 01 Mar 10:15:41 10:18:32 17° 91° (E) 10:21:31 437.445
VELOX 1 01 Mar 10:15:52 10:20:02 39° 98° (E) 10:24:12 145.980
ANTELSAT 01 Mar 10:25:31 10:29:30 31° 264° (W) 10:33:23 437.575/2403.000
ESTCUBE 1 01 Mar 10:25:37 10:29:20 25° 94° (E) 10:33:06 437.505/2401.250
QB50P1 01 Mar 10:25:38 10:29:51 54° 260° (W) 10:34:04 145.935-145.965
QB50P2 01 Mar 10:28:57 10:33:08 49° 261° (W) 10:37:19 145.880/145.840
FUNcube-1 01 Mar 10:29:44 10:33:47 51° 286° (WNW) 10:37:49 145.935
ZACube-1 01 Mar 10:30:24 10:34:26 50° 286° (WNW) 10:38:27 437.345
DOVE 4 01 Mar 10:31:15 10:33:02 12° 297° (WNW) 10:34:34 437.250
CUSAT 1 01 Mar 10:38:40 10:41:08 35° 76° (ENE) 10:43:35 437.405
UKube-1 01 Mar 10:41:27 10:45:37 45° 288° (WNW) 10:49:45 .
BUGSAT 1 01 Mar 10:44:29 10:48:35 45° 261° (W) 10:52:43 437.445
DUCHIFAT 1 01 Mar 10:45:51 10:49:45 33° 263° (W) 10:53:38 145.980
HUMSAT D 01 Mar 10:46:11 10:50:16 64° 285° (WNW) 10:54:20 437.325/437.525
UWE-3 01 Mar 10:46:21 10:49:55 28° 290° (WNW) 10:53:26 435.000/436.395/437.385
O/OREOS (USA 219) 01 Mar 10:48:56 10:52:08 18° 307° (NW) 10:55:13 437.305
CINEMA 3 01 Mar 10:50:43 10:52:47 13° 296° (WNW) 10:54:38 145.822/145.860
SO-50 01 Mar 10:55:04 10:59:59 66° 240° (WSW) 11:04:51 436.795
SPROUT 01 Mar 10:55:37 10:56:41 11° 88° (E) 10:58:02 437.525
50 SAT 01 Mar 10:59:51 11:03:46 61° 285° (WNW) 11:07:39 437.505
TISAT 1 01 Mar 11:04:42 11:06:23 12° 89° (E) 11:08:18 437.305
POLYITAN 1 01 Mar 11:04:58 11:08:17 21° 267° (W) 11:11:30 437.675
POPSAT HIP 1 01 Mar 11:06:21 11:09:37 20° 267° (W) 11:12:48 437.405
HO-68 01 Mar 11:16:05 11:19:22 13° 309° (NW) 11:22:17 435.675
RS-15 01 Mar 11:21:46 11:27:18 14° 261° (W) 11:31:47 29.354- 29.394
CUBEBUG 2 01 Mar 11:22:47 11:23:50 11° 297° (WNW) 11:24:39 437.445
Oscar 19 01 Mar 11:31:08 11:35:09 24° 66° (ENE) 11:39:17 437.125/150
ISS 01 Mar 11:31:38 11:33:54 17° 347° (NNW) 11:36:10 145.825
NANOSAT C BR1 01 Mar 11:32:21 11:33:46 11° 272° (W) 11:34:56 145.865
AISAT 01 Mar 11:42:30 11:46:11 25° 292° (WNW) 11:49:44 437.250
DANDE 01 Mar 11:42:53 11:45:10 23° 266° (W) 11:47:18 436.750
DX 1 01 Mar 11:49:23 11:49:41 10° 299° (WNW) 11:49:44 434.975-435.025
CUBEBUG 1 01 Mar 11:50:58 11:55:11 43° 288° (WNW) 11:59:20 437.445
VELOX 1 01 Mar 11:53:03 11:56:24 20° 294° (WNW) 11:59:37 145.980
ESTCUBE 1 01 Mar 12:02:11 12:06:16 32° 290° (WNW) 12:10:17 437.505/2401.250
ITUPSAT 1 01 Mar 12:11:14 12:12:05 11° 87° (E) 12:13:16 437.325
Gurwin Techsat 1B 01 Mar 12:28:57 12:32:54 22° 65° (ENE) 12:36:59 435.225
SPROUT 01 Mar 12:29:03 12:33:19 64° 286° (WNW) 12:37:33 437.525
TISAT 1 01 Mar 12:38:29 12:42:39 55° 286° (WNW) 12:46:45 437.305
ITAMSAT 1 01 Mar 13:04:01 13:09:09 60° 73° (ENE) 13:14:19 435.822/435.867
ISS 01 Mar 13:09:19 13:11:16 15° 7° (N) 13:13:14 145.825
Oscar 19 01 Mar 13:09:25 13:14:18 42° 262° (W) 13:19:10 437.125/150
SWISSCUBE 01 Mar 13:10:35 13:15:15 50° 99° (E) 13:19:56 437.505
BEESAT 01 Mar 13:19:27 13:24:11 56° 100° (E) 13:28:55 436.000
HORYU 2 01 Mar 13:20:56 13:23:31 16° 64° (ENE) 13:26:16 437.375
AO-7 01 Mar 13:35:05 13:41:49 29° 57° (ENE) 13:48:45 29.400- 29.500
ITUPSAT 1 01 Mar 13:45:51 13:50:41 81° 287° (WNW) 13:55:31 437.325
KKS-1 01 Mar 13:54:50 13:58:28 25° 94° (E) 14:02:09 437.445
STARS 01 Mar 14:04:49 14:08:03 20° 93° (E) 14:11:22 437.465
Gurwin Techsat 1B 01 Mar 14:07:25 14:12:34 50° 261° (W) 14:17:45 435.225
JAS-2 01 Mar 14:22:11 14:26:22 23° 61° (ENE) 14:31:04 435.910
ISS 01 Mar 14:45:23 14:48:25 35° 27° (NNE) 14:51:26 145.825
ITAMSAT 1 01 Mar 14:45:43 14:49:08 17° 270° (W) 14:52:22 435.822/435.867
SWISSCUBE 01 Mar 14:49:22 14:52:48 19° 295° (WNW) 14:56:05 437.505
HORYU 2 01 Mar 14:55:29 14:59:49 52° 260° (W) 15:04:10 437.375
YUBILEINY 01 Mar 14:55:32 15:02:36 30° 84° (E) 15:09:56 435.215
BEESAT 01 Mar 14:58:30 15:01:39 17° 296° (WNW) 15:04:38 436.000
AO-7 01 Mar 15:25:45 15:34:05 69° 256° (WSW) 15:42:24 29.400- 29.500
KKS-1 01 Mar 15:31:13 15:35:09 31° 291° (WNW) 15:39:00 437.445
STARS 01 Mar 15:40:38 15:44:40 36° 289° (WNW) 15:48:39 437.465
JAS-2 01 Mar 16:05:48 16:11:04 52° 262° (W) 16:16:56 435.910
Cubesat XI-IV 01 Mar 16:21:18 16:25:41 27° 66° (ENE) 16:30:11 437.490
ISS 01 Mar 16:21:54 16:24:47 29° 224° (SW) 16:27:40 145.825
CUTE-I 01 Mar 16:30:21 16:35:00 32° 67° (ENE) 16:39:45 437.470
MOZHAYETS 4 01 Mar 16:32:21 16:36:56 61° 100° (E) 16:41:32
M-CUBED/EXP-1 PRIME 01 Mar 16:38:39 16:42:52 89° 288° (WNW) 16:47:25 437.505
AUBIESAT-1 01 Mar 16:41:46 16:45:59 89° 108° (ESE) 16:50:32 437.475
YUBILEINY 01 Mar 16:50:20 16:58:56 60° 283° (WNW) 17:07:37 435.215
BEESAT 3 01 Mar 16:54:58 16:58:46 38° 116° (ESE) 17:02:39 437.485
AIST 2 01 Mar 17:10:17 17:13:14 19° 112° (ESE) 17:16:19 435.215
PHONESAT 2.4 01 Mar 17:16:32 17:17:39 11° 146° (SSE) 17:18:52 2401.200-2431.200
BEESAT 2 01 Mar 17:18:45 17:22:48 60° 120° (ESE) 17:26:56 435.950
VERMONT LUNAR 01 Mar 17:20:03 17:22:44 21° 153° (SSE) 17:25:27 437.305
AO-7 01 Mar 17:25:26 17:28:38 12° 276° (W) 17:31:06 29.400- 29.500
O/OREOS (USA 219) 01 Mar 17:40:06 17:42:08 13° 49° (NE) 17:44:20 437.305
AIST 1 01 Mar 17:50:00 17:54:17 47° 78° (ENE) 17:58:32
Cubesat XI-IV 01 Mar 18:00:33 18:05:37 41° 262° (W) 18:10:41 437.490
STRAND 1 01 Mar 18:03:55 18:08:10 26° 94° (E) 18:12:28 437.568
PRISM 01 Mar 18:07:18 18:11:22 45° 99° (E) 18:15:27 437.425
HO-68 01 Mar 18:09:11 18:13:56 20° 57° (ENE) 18:18:58 435.675
CUTE-I 01 Mar 18:10:10 18:15:03 34° 264° (W) 18:19:54 437.470
MOZHAYETS 4 01 Mar 18:11:02 18:13:44 15° 296° (WNW) 18:16:16
AUBIESAT-1 01 Mar 18:19:34 18:20:25 10° 301° (WNW) 18:21:03 437.475
CUBESAT XI-V 01 Mar 18:27:42 18:32:28 76° 102° (ESE) 18:37:10 437.345
BEESAT 3 01 Mar 18:33:40 18:37:01 23° 315° (NW) 18:40:20 437.485
CUTE 1.7 + AOD 2 01 Mar 18:38:00 18:39:38 12° 64° (ENE) 18:41:27 437.475
AIST 2 01 Mar 18:47:28 18:51:33 44° 308° (NW) 18:55:42 435.215
PHONESAT 2.4 01 Mar 18:52:08 18:55:33 39° 161° (SSE) 18:59:00 2401.200-2431.200
YUBILEINY 01 Mar 18:55:10 18:58:15 12° 308° (NW) 19:00:40 435.215
VERMONT LUNAR 01 Mar 18:56:52 19:00:19 59° 169° (S) 19:03:46 437.305
BEESAT 2 01 Mar 18:58:35 19:01:25 17° 319° (NW) 19:04:09 435.950
BRITE-PL 01 Mar 19:04:50 19:10:13 48° 72° (ENE) 19:15:27 437.365/2234.400
GOMX 1 01 Mar 19:16:07 19:21:08 41° 72° (ENE) 19:25:59 467.674
O/OREOS (USA 219) 01 Mar 19:17:37 19:22:15 79° 249° (WSW) 19:26:48 437.305
AAUSAT CUBESAT 2 01 Mar 19:24:29 19:27:45 23° 69° (ENE) 19:31:05 437.432
COMPASS 1 01 Mar 19:25:51 19:29:22 27° 70° (ENE) 19:32:56 437.405
AIST 1 01 Mar 19:29:02 19:31:35 15° 274° (W) 19:33:55
STRAND 1 01 Mar 19:42:43 19:47:29 38° 291° (WNW) 19:52:11 437.568
PRISM 01 Mar 19:43:49 19:46:34 17° 295° (WNW) 19:49:10 437.425
SEEDS 01 Mar 19:50:47 19:54:55 64° 75° (ENE) 19:59:05 437.485
CANX-2 01 Mar 19:52:05 19:56:18 88° 77° (ENE) 20:00:32 2200.000
FUNcube-1 01 Mar 19:52:15 19:53:54 12° 64° (ENE) 19:55:45 145.935
ZACube-1 01 Mar 19:52:53 19:54:42 13° 65° (ENE) 19:56:42 437.345
HO-68 01 Mar 19:53:45 20:00:55 85° 254° (WSW) 20:08:08 435.675
DOVE 4 01 Mar 19:56:20 20:01:30 69° 75° (ENE) 20:06:25 437.250
UKube-1 01 Mar 20:02:17 20:04:49 16° 65° (ENE) 20:07:31 .
CUBESAT XI-V 01 Mar 20:07:13 20:09:21 13° 298° (WNW) 20:11:15 437.345
UWE-3 01 Mar 20:07:44 20:11:08 22° 68° (ENE) 20:14:33 435.000/436.395/437.385
CUTE 1.7 + AOD 2 01 Mar 20:10:56 20:15:06 62° 259° (W) 20:19:18 437.475
CINEMA 3 01 Mar 20:13:17 20:17:59 55° 74° (ENE) 20:22:31 145.822/145.860
